Location: Chavenon
(46.4141°N, 2.9461°E)
Time: 13:14:16
(UTC+00:00)

Daily predictions for brighter satellites

Satellite Brightness Start Highest point End
(mag) Time Altitude Azimuth Time Altitude Azimuth Time Altitude Azimuth
STARLINK-1105 2.9 18:41:56 10° WSW 18:45:04 84° NNW 18:48:13 10° ENE
STARLINK-1206 2.9 18:42:26 10° WSW 18:45:33 83° NNW 18:48:41 10° ENE
FREGAT/IRIS 3.5 18:43:41 10° SE 18:45:59 25° ENE 18:48:19 10° NNE
STARLINK-1247 2.9 18:42:53 10° WSW 18:45:59 82° NNW 18:49:07 10° ENE
STARLINK-1243 3.6 18:42:18 10° SW 18:46:20 62° SE 18:50:22 10° ENE
STARLINK-1227 3.0 18:43:18 10° WSW 18:46:25 82° NNW 18:49:35 10° ENE
STARLINK-1218 2.9 18:43:47 10° WSW 18:46:54 81° NNW 18:50:01 10° ENE
Abrixas rocket 4.0 18:45:41 10° S 18:47:14 13° SE 18:48:48 10° ESE
STARLINK-1226 3.0 18:44:13 10° WSW 18:47:20 80° NNW 18:50:29 10° ENE
STARLINK-1254 3.0 18:44:39 10° WSW 18:47:47 80° NNW 18:50:56 10° ENE
STARLINK-1079 3.6 18:43:47 10° WNW 18:47:50 80° NNE 18:51:53 10° ESE
STARLINK-1215 3.0 18:45:09 10° WSW 18:48:15 79° NNW 18:51:23 10° ENE
STARLINK-1231 3.0 18:45:35 10° WSW 18:48:42 78° NNW 18:51:48 10° ENE
STARLINK-1232 3.0 18:46:29 10° WSW 18:49:36 77° NNW 18:52:44 10° ENE
STARLINK-1217 3.0 18:46:56 10° WSW 18:50:03 77° NNW 18:53:10 10° ENE
Cosmos 304 Rocket 3.7 18:45:19 10° NNW 18:50:07 76° ENE 18:54:54 10° SSE
Cosmos 1953 4.2 18:48:49 10° ESE 18:50:22 12° E 18:51:54 10° ENE
STARLINK-1208 3.0 18:47:21 10° WSW 18:50:29 76° NNW 18:53:38 10° ENE
Cosmos 1709 Rocket 4.3 18:44:45 10° N 18:50:45 48° ENE 18:56:39 10° SSE
STARLINK-1229 3.0 18:47:50 10° WSW 18:50:57 75° NNW 18:54:04 10° ENE
STARLINK-1236 3.6 18:47:03 10° SW 18:51:06 67° SE 18:55:09 10° ENE
STARLINK-1271 3.0 18:48:17 10° WSW 18:51:24 75° NNW 18:54:31 10° ENE
SeaSat 1 3.5 18:46:51 10° NNE 18:51:38 50° NW 18:56:23 10° SW
STARLINK-1270 3.0 18:48:45 10° WSW 18:51:52 74° NNW 18:54:59 10° ENE
STARLINK-1116 3.6 18:48:12 10° WNW 18:52:16 85° NNE 18:56:19 10° ESE
STARLINK-1154 3.1 18:49:12 10° WSW 18:52:18 74° NNW 18:55:26 10° ENE
STARLINK-1197 3.1 18:50:06 10° WSW 18:53:13 73° NNW 18:56:20 10° ENE
Cosmos 1269 Rocket 4.2 18:48:33 10° S 18:53:39 52° ESE 18:58:48 10° NNE
STARLINK-1189 3.1 18:50:34 10° WSW 18:53:40 72° NNW 18:56:47 10° ENE
STARLINK-1187 3.3 18:51:25 10° WSW 18:54:31 64° NNW 18:57:39 10° NE
STARLINK-1188 3.1 18:51:28 10° WSW 18:54:34 71° NNW 18:57:41 10° ENE
STARLINK-1198 3.1 18:51:28 10° WSW 18:54:34 71° NNW 18:57:41 10° ENE
STARLINK-1235 3.5 18:52:08 10° WSW 18:55:14 58° NNW 18:58:21 10° NE
CZ-4C R/B 4.4 18:50:59 10° WNW 18:55:26 23° NNW 19:00:31 10° NNE
SL-08 ROCKET BODY 4.4 18:49:28 10° N 18:55:39 82° E 19:01:41 10° S
STARLINK-1199 3.2 18:53:24 10° WSW 18:56:31 69° NNW 18:59:40 10° ENE
STARLINK-1191 3.2 18:53:51 10° WSW 18:56:58 68° NNW 19:00:06 10° ENE
STARLINK-1210 3.2 18:54:19 10° WSW 18:57:25 68° NNW 19:00:34 10° ENE
STARLINK-1221 3.2 18:54:45 10° WSW 18:57:52 67° NNW 19:01:01 10° ENE
STARLINK-1219 3.2 18:55:13 10° WSW 18:58:20 67° NNW 19:01:29 10° ENE
STARLINK-1102 4.5 18:54:29 10° NW 18:58:27 41° NNE 19:02:19 10° E
STARLINK-1222 3.2 18:55:40 10° WSW 18:58:47 66° NNW 19:01:55 10° ENE
STARLINK-1211 3.2 18:56:07 10° WSW 18:59:14 66° NNW 19:02:22 10° NE
YAOGAN 1 4.3 18:55:17 10° SSW 18:59:18 37° W 19:03:21 10° NNW
ISS -2.6 18:56:23 10° WNW 18:59:30 34° N 19:02:38 10° ENE
STARLINK-1214 3.2 18:56:34 10° WSW 18:59:41 65° NNW 19:02:49 10° NE
STARLINK-1245 3.2 18:57:03 10° WSW 19:00:08 64° NNW 19:03:15 10° NE
STARLINK-1238 3.3 18:57:26 10° WSW 19:00:33 64° NNW 19:03:42 10° NE
STARLINK-1269 3.5 18:56:51 10° SW 19:00:54 77° SSE 19:05:00 10° ENE
STARLINK-1205 3.3 18:58:21 10° WSW 19:01:28 63° NNW 19:04:34 10° NE
STARLINK-1094 3.6 18:57:28 10° WNW 19:01:32 85° SSW 19:05:21 11° SE
Cosmos 1455 Rocket 3.0 18:57:16 10° S 19:01:34 71° E 19:05:56 10° NNE
Cosmos 2297 3.8 18:56:06 10° NNW 19:01:46 67° ENE 19:07:26 10° SE
STARLINK-1204 3.3 18:58:51 10° WSW 19:01:57 63° NNW 19:05:02 10° NE
STARLINK-1111 4.4 18:59:29 10° NW 19:03:28 42° NNE 19:07:06 12° E
S3M 4.2 18:59:07 10° S 19:05:29 84° W 19:11:56 10° N
STARLINK-1200 3.5 19:01:39 10° SW 19:05:43 83° SSE 19:09:49 10° ENE
Cosmos 2237 Rocket 2.8 19:00:35 10° SW 19:06:08 61° WNW 19:11:45 10° NNE
STARLINK-1117 3.6 19:02:19 10° WNW 19:06:22 79° SSW 19:10:00 13° SE
STARLINK-1073 4.3 19:04:28 10° NW 19:08:28 44° NNE 19:11:53 13° E
Cosmos 1892 Rocket 4.1 19:04:24 10° NNW 19:08:51 66° W 19:13:17 10° S
CZ-2C R/B 3.7 19:05:28 10° NE 19:09:21 21° E 19:13:12 10° SE
Cosmos 1626 Rocket 3.9 19:05:24 10° N 19:09:39 45° ENE 19:13:49 10° SSE
Cosmos 1805 4.1 19:05:59 10° SSW 19:09:49 55° WNW 19:13:41 10° N
STARLINK-1192 3.5 19:06:23 10° WSW 19:10:29 88° SE 19:14:34 10° ENE
STARLINK-1078 3.7 19:06:46 10° WNW 19:10:49 74° SSW 19:14:17 14° SE
BREEZE-M DEB (TANK) 4.3 19:00:07 10° WNW 19:12:12 47° SW 19:15:35 10° SSE
Cosmos 2278 Rocket 4.0 19:07:34 10° NW 19:12:34 33° WSW 19:17:34 10° SSW
Meteor 2-5 Rocket 4.4 19:07:39 10° NNW 19:13:13 60° W 19:18:39 10° S
STARLINK-1121 4.3 19:09:27 10° NW 19:13:27 45° NNE 19:16:39 15° E
STARLINK-1244 3.6 19:11:18 10° WSW 19:15:24 86° NNW 19:19:30 10° ENE
STARLINK-1108 3.7 19:11:38 10° WNW 19:15:40 69° SW 19:18:58 15° SE
ARGOS 3.1 19:10:21 10° SSE 19:15:43 70° ENE 19:21:06 10° N
Cosmos 1602 Rocket 4.0 19:13:22 10° N 19:17:39 43° ENE 19:21:45 11° SSE
STARLINK-1106 4.2 19:14:25 10° NW 19:18:26 47° NNE 19:21:25 17° E
STARLINK-1138 3.6 19:15:54 10° WSW 19:20:00 82° NNW 19:24:07 10° ENE
STARLINK-1071 3.8 19:16:17 10° WNW 19:20:19 64° SW 19:23:26 16° SE
Okean 1-7 Rocket 4.3 19:16:33 10° NNW 19:20:53 57° W 19:25:09 10° S
STARLINK-1234 4.1 19:18:16 10° W 19:21:05 37° NNW 19:23:52 10° NE
Cosmos 494 Rocket 4.4 19:16:56 10° SSW 19:22:03 67° WNW 19:27:15 10° NNE
USA 186 1.9 19:19:32 10° SSE 19:22:59 88° W 19:26:23 10° NNW
STARLINK-1112 4.1 19:19:25 10° NW 19:23:28 50° NNE 19:26:14 19° E
MOS 1 Rocket 4.4 19:19:15 10° NNE 19:23:50 30° E 19:28:31 10° SSE
Meteor 1-24 Rocket 4.1 19:19:01 10° NNW 19:24:30 64° W 19:29:46 10° S
STARLINK-1110 3.9 19:20:46 10° WNW 19:24:46 59° SW 19:27:43 17° SE
STARLINK-1143 3.7 19:20:49 10° WSW 19:24:54 77° NNW 19:29:01 10° ENE
STARLINK-1124 4.0 19:22:09 10° WNW 19:26:14 59° SW 19:29:13 17° SE
MetOp-A 4.4 19:21:24 10° SE 19:26:27 50° ENE 19:31:37 10° N
CZ-2C R/B 2.9 19:23:04 10° SSE 19:28:08 88° WSW 19:33:01 10° NNW
STARLINK-1128 4.1 19:24:24 10° NW 19:28:28 52° NNE 19:31:01 21° E
Cosmos 1544 Rocket 3.7 19:24:46 10° SSW 19:29:10 80° W 19:33:38 10° N
Cosmos 1470 2.6 19:27:21 10° S 19:31:11 68° E 19:35:04 10° NNE
STARLINK-1241 3.8 19:29:12 10° WSW 19:33:14 69° NNW 19:37:13 10° ENE
STARLINK-1113 4.0 19:29:22 10° WNW 19:33:27 55° NNE 19:35:47 23° E
STARLINK-1122 4.1 19:30:14 10° WNW 19:34:11 51° SW 19:36:48 19° SSE
SPOT 3 Rocket 3.6 19:29:48 10° SSE 19:34:53 64° ENE 19:40:03 10° N
MOS 1 4.5 19:31:10 10° S 19:36:48 76° WSW 19:42:30 10° NNW
IRIDIUM 103 4.5 19:32:27 10° N 19:37:34 52° E 19:42:00 13° SSE
STARLINK-1239 3.9 19:34:08 10° WSW 19:38:10 65° NNW 19:41:56 12° ENE
STARLINK-1119 3.9 19:34:20 10° WNW 19:38:26 58° NNE 19:40:34 26° E
STARLINK-1126 4.3 19:35:14 10° WNW 19:39:09 47° SW 19:41:36 21° SSE
Cosmos 2369 Rocket 2.6 19:34:37 10° NNW 19:40:07 46° NE 19:43:14 24° ESE
SJ-6B 3.0 19:37:00 10° S 19:41:04 76° W 19:45:12 10° NNW
H-2A R/B 4.5 19:35:37 10° WSW 19:41:10 14° SW 19:44:11 10° SSW
STARLINK-1240 4.0 19:38:53 10° WSW 19:42:54 61° NNW 19:46:28 13° NE
Cosmos 1726 3.0 19:42:57 29° E 19:43:00 29° E 19:46:17 10° NNE
STARLINK-1114 3.8 19:39:21 10° WNW 19:43:29 61° NNE 19:45:24 29° E
STARLINK-1082 4.4 19:39:45 10° WNW 19:43:38 43° SW 19:45:55 21° SSE
Ariane Rocket 4.0 19:39:16 10° S 19:44:09 47° W 19:49:03 10° NNW
Cosmos 1758 3.3 19:41:04 10° S 19:45:09 89° E 19:49:17 10° N
Aureole 2 Rocket 3.1 19:42:02 10° N 19:45:20 37° ENE 19:45:56 34° E
Cosmos 1758 Rocket 4.0 19:42:22 10° N 19:46:30 39° ENE 19:47:53 30° ESE
STARLINK-1216 4.1 19:43:39 10° WSW 19:47:40 58° NNW 19:51:02 14° NE
NOSS 3-3 (A) 4.3 19:42:39 10° S 19:47:54 37° ESE 19:53:42 10° NE
NOSS 3-3 (C) 4.3 19:42:46 10° S 19:48:01 36° ESE 19:53:48 10° NE
STARLINK-1130 (DARKSAT) 3.7 19:44:19 10° WNW 19:48:27 65° NNE 19:50:10 33° E
CZ-2C R/B 3.7 19:44:53 10° NNE 19:49:40 76° ESE 19:54:21 10° S
STARLINK-1237 4.2 19:48:27 10° WSW 19:52:27 55° NNW 19:55:38 15° NE
STARLINK-1084 3.7 19:49:17 10° WNW 19:53:25 69° NNE 19:54:56 37° E
Terra 4.0 19:53:53 10° ENE 19:54:07 10° NE 19:54:51 10° NE
Cosmos 2184 Rocket 4.1 19:49:25 10° N 19:55:41 58° ENE 19:59:37 23° SSE
IRIDIUM 106 4.2 19:50:39 10° N 19:55:53 75° E 20:00:12 15° S
Spot 2 Rocket 4.3 19:55:41 29° E 19:57:06 34° ENE 20:01:41 10° N
STARLINK-1202 4.3 19:53:13 10° W 19:57:12 52° NNW 20:00:11 17° NE
STARLINK-1098 3.6 19:54:16 10° WNW 19:58:25 73° NNE 19:59:43 42° ESE
Cosmos 1606 Rocket 4.2 19:59:07 35° E 19:59:12 35° E 20:03:15 10° NNE
Cosmos 1943 Rocket 2.1 19:56:03 10° NNW 20:01:37 82° ENE 20:04:35 29° SSE
Meteor 1-21 Rocket 4.1 19:56:36 10° N 20:02:13 84° E 20:06:08 20° SSE
Cosmos 1943 3.7 20:01:04 26° SSE 20:03:16 36° ESE 20:08:24 10° NE
STARLINK-1123 3.6 19:59:14 10° WNW 20:03:24 78° NNE 20:04:30 47° ESE
STARLINK-1246 4.4 20:00:28 10° W 20:04:27 49° NNW 20:07:11 19° NE
Meteor 2-10 4.1 20:00:44 12° S 20:05:32 60° E 20:11:00 10° NNE
SL-8 R/B 3.7 20:00:59 10° WNW 20:05:47 76° N 20:07:35 38° E
Resurs 1-3 3.6 20:05:31 25° S 20:08:03 80° WSW 20:12:28 10° NNW
STARLINK-1097 3.5 20:04:12 10° WNW 20:08:22 83° NNE 20:09:16 54° ESE
Cosmos 1626 4.4 20:05:56 10° NW 20:08:59 24° W 20:12:01 10° SW
ATLAS 2AS CENTAUR R/B 3.6 20:03:38 10° NW 20:10:53 41° NE 20:14:22 26° E
STARLINK-1099 3.5 20:09:12 10° WNW 20:13:21 88° NNE 20:14:04 61° ESE
H-2A R/B 3.8 20:10:09 10° SSW 20:14:52 32° W 20:19:30 10° NNW
USA 245 4.4 20:15:17 40° E 20:16:18 45° ENE 20:21:49 10° N
USA 234 3.2 20:09:49 10° NE 20:16:24 89° SE 20:22:57 10° SW
Cosmos 2154 Rocket 4.2 20:10:32 10° N 20:16:47 54° ENE 20:19:00 37° SE
Aureole 3 4.0 20:13:05 10° SSW 20:17:04 66° WNW 20:22:13 10° N
Resurs 01 Rocket 1.5 20:16:28 42° SSE 20:17:58 89° WNW 20:22:24 10° NNW
STARLINK-1104 3.4 20:14:11 10° WNW 20:18:20 87° SW 20:18:51 68° SE
DMSP B5D2-2 4.0 20:13:57 10° NNE 20:19:12 85° WNW 20:24:25 10° SSW
SL-16 R/B 3.4 20:15:23 10° SW 20:20:46 43° NW 20:26:10 10° NNE
Cosmos 1328 4.1 20:16:52 10° N 20:20:25 49° NE 20:20:25 49° NE
Cosmos 2228 3.1 20:22:39 54° ENE 20:22:39 54° ENE 20:26:30 10° NNE
Abrixas rocket 3.9 20:19:29 10° WSW 20:20:46 23° SW 20:20:46 23° SW
Cosmos 967 Rocket 4.5 20:16:48 10° SSW 20:23:04 58° ESE 20:29:26 10° NE
STARLINK-1144 3.4 20:19:10 10° WNW 20:23:19 81° SW 20:23:38 74° SSE
Cosmos 1953 2.8 20:23:07 15° SSW 20:26:13 58° WNW 20:30:09 10° N
STARLINK-1103 3.5 20:24:08 10° WNW 20:28:17 76° SW 20:28:25 75° SSW
Cosmos 1992 Rocket 4.1 20:26:09 10° NNW 20:31:21 71° WSW 20:33:07 41° S
Nadezhda 1 Rocket 3.9 20:29:47 30° S 20:33:05 70° E 20:39:28 10° NNE
STARLINK-1101 3.6 20:29:08 10° WNW 20:33:11 70° SW 20:33:11 70° SW
ISS -2.7 20:33:12 10° WNW 20:35:39 45° WNW 20:35:39 45° WNW
STARLINK-1102 3.8 20:34:06 10° WNW 20:37:58 63° WSW 20:37:58 63° WSW
Cosmos 2058 Rocket 4.2 20:42:37 32° NE 20:42:37 32° NE 20:45:19 10° NNE
MetOp-B 4.0 20:40:10 55° SSE 20:41:24 89° ENE 20:46:48 10° NNW
Cosmos 1603 3.6 20:36:43 10° SSW 20:42:22 89° ESE 20:48:01 10° NNE
STARLINK-1111 4.0 20:39:06 10° WNW 20:42:45 56° WSW 20:42:45 56° WSW
Cosmos 2084 Rocket 4.0 20:38:52 10° NW 20:43:12 50° WSW 20:43:30 49° SW
SPOT 5 4.0 20:44:26 28° NE 20:44:26 28° NE 20:47:10 10° N
Cosmos 2251 Rocket 3.9 20:37:59 10° SSW 20:43:18 66° WNW 20:48:41 10° NNE
Meteor 1-16 Rocket 4.2 20:40:19 23° SSW 20:43:43 77° WNW 20:49:12 10° N
Cosmos 1703 3.6 20:40:26 10° N 20:43:49 63° NNW 20:43:49 63° NNW
IGS 5A 4.2 20:49:01 45° NNE 20:49:01 45° NNE 20:52:08 10° N
ERS-1 Rocket 3.5 20:48:38 46° NE 20:48:38 46° NE 20:52:59 10° N
STARLINK-1073 4.3 20:44:06 10° WNW 20:47:33 49° WSW 20:47:33 49° WSW
Cosmos 2074 Rocket 4.5 20:43:04 10° NNW 20:49:11 57° W 20:53:00 24° SSW
Landsat 7 3.9 20:49:40 66° NE 20:49:40 66° NE 20:54:04 10° N
CZ-2C R/B 3.2 20:44:57 10° N 20:50:00 55° WNW 20:55:02 10° SSW
Cosmos 1656 Rocket 3.5 20:56:06 10° NNW 21:01:50 89° ENE 21:02:03 83° SE
Meteor 1-11 4.2 20:57:57 10° NNW 21:03:47 80° W 21:04:29 68° SSW
Aureole 1 Rocket 4.2 21:01:50 48° S 21:04:02 69° ESE 21:10:39 10° NNE
Cosmos 1726 Rocket 4.3 21:10:43 51° WNW 21:10:43 51° WNW 21:14:41 10° N
COSMOS 2455 3.5 21:09:26 10° NNW 21:15:09 43° NE 21:15:09 43° NE
Cosmos 2341 Rocket 3.9 21:16:04 10° N 21:22:28 88° W 21:22:43 83° SSW
Cosmos 2369 Rocket 3.5 21:19:00 10° NW 21:23:57 31° WSW 21:25:03 29° SW
NOSS 3-4 (A) 3.7 21:22:39 10° NW 21:29:39 84° NE 21:30:09 78° ESE
NOSS 3-4 (C) 3.7 21:22:45 10° NW 21:29:45 83° NE 21:30:14 78° ESE
Terra 3.0 21:32:46 37° N 21:32:46 37° N 21:35:43 10° N
SPOT 1/Viking Rocket 4.4 21:41:28 46° WNW 21:41:28 46° WNW 21:45:54 10° NNW
Cosmos 1943 Rocket 4.4 21:41:26 10° WNW 21:44:38 16° W 21:46:08 14° WSW
Cosmos 1943 4.4 21:42:19 12° WSW 21:47:15 40° NW 21:52:37 10° NNE
Cosmos 2218 Rocket 4.2 21:43:20 10° N 21:48:36 67° NNW 21:48:36 67° NNW
USA 234 4.2 21:52:58 10° NE 21:59:04 44° NNW 22:05:11 10° W
Cosmos 2181 Rocket 4.3 22:00:17 63° NW 22:00:17 63° NW 22:05:45 10° N
ATLAS 2AS CENTAUR R/B 3.0 21:54:51 10° NW 22:01:48 62° W 22:01:48 62° W
Cosmos 1697 Rocket 4.5 22:06:41 10° N 22:10:12 24° NNE 22:10:12 24° NNE
Mayak 1.7 22:15:14 10° N 22:15:32 12° N 22:15:32 12° N
Cosmos 1980 Rocket 4.2 22:32:19 10° N 22:35:28 21° NNE 22:35:28 21° NNE
CZ-4C R/B 4.2 22:31:18 10° NNW 22:37:14 31° NNE 22:38:44 29° NE
SL-16 R/B 4.4 23:52:44 22° NE 23:52:46 22° NE 23:57:18 10° N
